"FRM_AIS_EDR_2224.DAT           ",2005-10-07T11:04:08.75 ,"1/0076763043.45275",    0,    0,  274896,"AIS","B1","B1","B1","B1","PISd",0,0,0,0,"B1", 0,15,   0, 0,    0,"AIS","N/A    ","OK ","OK ",    001170.457,    -084.259,    -024.224,    0003.319,    0072.544
"FRM_AIS_EDR_2224.DAT           ",2005-10-07T11:04:16.29 ,"1/0076763051.15339",    0,    1,  274896,"AIS","B1","B1","B1","B1","PISd",0,0,0,0,"B1", 0,15,   0, 0,    0,"AIS","N/A    ","OK ","OK ",    001160.091,    -084.521,    -022.222,    0003.454,    0072.226
"FRM_AIS_EDR_2224.DAT           ",2005-10-07T11:04:23.84 ,"1/0076763058.50938",    0,    2,  274896,"AIS","B1","B1","B1","B1","PISd",0,0,0,0,"B1", 0,15,   0, 0,    0,"AIS","N/A    ","OK ","OK ",    001149.756,    -084.777,    -020.009,    0003.604,    0071.907
"FRM_AIS_EDR_2224.DAT           ",2005-10-07T11:04:31.38 ,"1/0076763066.21001",    0,    3,  274896,"AIS","B1","B1","B1","B1","PISd",0,0,0,0,"B1", 0,15,   0, 0,    0,"AIS","N/A    ","OK ","OK ",    001139.452,    -085.026,    -017.557,    0003.769,    0071.586
"FRM_AIS_EDR_2224.DAT           ",2005-10-07T11:04:38.92 ,"1/0076763073.56601",    0,    4,  274896,"AIS","B1","B1","B1","B1","PISd",0,0,0,0,"B1", 0,15,   0, 0,    0,"AIS","N/A    ","OK ","OK ",    001129.181,    -085.265,    -014.838,    0003.953,    0071.264
"FRM_AIS_EDR_2224.DAT           ",2005-10-07T11:04:46.47 ,"1/0076763081.26664",    0,    5,  274896,"AIS","B1","B1","B1","B1","PISd",0,0,0,0,"B1", 0,15,   0, 0,    0,"AIS","N/A    ","OK ","OK ",    001118.942,    -085.493,    -011.820,    0004.156,    0070.940
"FRM_AIS_EDR_2224.DAT           ",2005-10-07T11:04:54.01 ,"1/0076763088.62263",    0,    6,  274896,"AIS","B1","B1","B1","B1","PISd",0,0,0,0,"B1", 0,15,   0, 0,    0,"AIS","N/A    ","OK ","OK ",    001108.736,    -085.708,    -008.472,    0004.381,    0070.615
"FRM_AIS_EDR_2224.DAT           ",2005-10-07T11:05:01.55 ,"1/0076763096.32327",    0,    7,  274896,"AIS","B1","B1","B1","B1","PISd",0,0,0,0,"B1", 0,15,   0, 0,    0,"AIS","N/A    ","OK ","OK ",    001098.564,    -085.908,    -004.765,    0004.630,    0070.288
"FRM_AIS_EDR_2224.DAT           ",2005-10-07T11:05:09.09 ,"1/0076763104.02390",    0,    8,  274896,"AIS","B1","B1","B1","B1","PISd",0,0,0,0,"B1", 0,15,   0, 0,    0,"AIS","N/A    ","OK ","OK ",    001088.426,    -086.089,    -000.676,    0004.905,    0069.960
"FRM_AIS_EDR_2224.DAT           ",2005-10-07T11:05:16.64 ,"1/0076763111.37989",    0,    9,  274896,"AIS","B1","B1","B1","B1","PISd",0,0,0,0,"B1", 0,15,   0, 0,    0,"AIS","N/A    ","OK ","OK ",    001078.322,    -086.249,    0003.809,    0005.206,    0069.631
"FRM_AIS_EDR_2224.DAT           ",2005-10-07T11:05:24.18 ,"1/0076763119.08053",    0,   10,  274896,"AIS","B1","B1","B1","B1","PISd",0,0,0,0,"B1", 0,15,   0, 0,    0,"AIS","N/A    ","OK ","OK ",    001068.254,    -086.384,    0008.685,    0005.533,    0069.300
"FRM_AIS_EDR_2224.DAT           ",2005-10-07T11:05:31.72 ,"1/0076763126.43652",    0,   11,  274896,"AIS","B1","B1","B1","B1","PISd",0,0,0,0,"B1", 0,15,   0, 0,    0,"AIS","N/A    ","OK ","OK ",    001058.221,    -086.491,    0013.925,    0005.884,    0068.968
"FRM_AIS_EDR_2224.DAT           ",2005-10-07T11:05:39.27 ,"1/0076763134.13715",    0,   12,  274896,"AIS","B1","B1","B1","B1","PISd",0,0,0,0,"B1", 0,15,   0, 0,    0,"AIS","N/A    ","OK ","OK ",    001048.224,    -086.568,    0019.472,    0006.256,    0068.634
"FRM_AIS_EDR_2224.DAT           ",2005-10-07T11:05:46.81 ,"1/0076763141.49315",    0,   13,  274896,"AIS","B1","B1","B1","B1","PISd",0,0,0,0,"B1", 0,15,   0, 0,    0,"AIS","N/A    ","OK ","OK ",    001038.263,    -086.610,    0025.241,    0006.643,    0068.298
"FRM_AIS_EDR_2224.DAT           ",2005-10-07T11:05:54.35 ,"1/0076763149.19378",    0,   14,  274896,"AIS","B1","B1","B1","B1","PISd",0,0,0,0,"B1", 0,15,   0, 0,    0,"AIS","N/A    ","OK ","OK ",    001028.340,    -086.618,    0031.123,    0007.037,    0067.961
"FRM_AIS_EDR_2224.DAT           ",2005-10-07T11:06:01.90 ,"1/0076763156.54977",    0,   15,  274896,"AIS","B1","B1","B1","B1","PISd",0,0,0,0,"B1", 0,15,   0, 0,    0,"AIS","N/A    ","OK ","OK ",    001018.454,    -086.589,    0036.994,    0007.431,    0067.623
"FRM_AIS_EDR_2224.DAT           ",2005-10-07T11:06:09.44 ,"1/0076763164.25041",    0,   16,  274896,"AIS","B1","B1","B1","B1","PISd",0,0,0,0,"B1", 0,15,   0, 0,    0,"AIS","N/A    ","OK ","OK ",    001008.607,    -086.524,    0042.733,    0007.815,    0067.283
"FRM_AIS_EDR_2224.DAT           ",2005-10-07T11:06:16.98 ,"1/0076763171.60640",    0,   17,  274896,"AIS","B1","B1","B1","B1","PISd",0,0,0,0,"B1", 0,15,   0, 0,    0,"AIS","N/A    ","OK ","OK ",    000998.798,    -086.426,    0048.232,    0008.184,    0066.942
"FRM_AIS_EDR_2224.DAT           ",2005-10-07T11:06:24.53 ,"1/0076763179.30703",    0,   18,  274896,"AIS","B1","B1","B1","B1","PISd",0,0,0,0,"B1", 0,15,   0, 0,    0,"AIS","N/A    ","OK ","OK ",    000989.028,    -086.295,    0053.412,    0008.531,    0066.599
"FRM_AIS_EDR_2224.DAT           ",2005-10-07T11:06:32.07 ,"1/0076763187.00767",    0,   19,  274896,"AIS","B1","B1","B1","B1","PISd",0,0,0,0,"B1", 0,15,   0, 0,    0,"AIS","N/A    ","OK ","OK ",    000979.298,    -086.135,    0058.222,    0008.854,    0066.255
"FRM_AIS_EDR_2224.DAT           ",2005-10-07T11:06:39.61 ,"1/0076763194.36366",    0,   20,  274896,"AIS","B1","B1","B1","B1","PISd",0,0,0,0,"B1", 0,15,   0, 0,    0,"AIS","N/A    ","OK ","OK ",    000969.609,    -085.950,    0062.638,    0009.150,    0065.909
"FRM_AIS_EDR_2224.DAT           ",2005-10-07T11:06:47.16 ,"1/0076763202.06429",    0,   21,  274896,"AIS","B1","B1","B1","B1","PISd",0,0,0,0,"B1", 0,15,   0, 0,    0,"AIS","N/A    ","OK ","OK ",    000959.960,    -085.741,    0066.661,    0009.421,    0065.562
"FRM_AIS_EDR_2224.DAT           ",2005-10-07T11:06:54.70 ,"1/0076763209.42029",    0,   22,  274896,"AIS","B1","B1","B1","B1","PISd",0,0,0,0,"B1", 0,15,   0, 0,    0,"AIS","N/A    ","OK ","OK ",    000950.353,    -085.512,    0070.304,    0009.666,    0065.213
"FRM_AIS_EDR_2224.DAT           ",2005-10-07T11:07:02.24 ,"1/0076763217.12092",    0,   23,  274896,"AIS","B1","B1","B1","B1","PISd",0,0,0,0,"B1", 0,15,   0, 0,    0,"AIS","N/A    ","OK ","OK ",    000940.788,    -085.265,    0073.593,    0009.887,    0064.863
"FRM_AIS_EDR_2224.DAT           ",2005-10-07T11:07:09.79 ,"1/0076763224.47691",    0,   24,  274896,"AIS","B1","B1","B1","B1","PISd",0,0,0,0,"B1", 0,15,   0, 0,    0,"AIS","N/A    ","OK ","OK ",    000931.265,    -085.002,    0076.557,    0010.086,    0064.511
"FRM_AIS_EDR_2224.DAT           ",2005-10-07T11:07:17.33 ,"1/0076763232.17755",    0,   25,  274896,"AIS","B1","B1","B1","B1","PISd",0,0,0,0,"B1", 0,15,   0, 0,    0,"AIS","N/A    ","OK ","OK ",    000921.785,    -084.727,    0079.228,    0010.267,    0064.158
"FRM_AIS_EDR_2224.DAT           ",2005-10-07T11:07:24.87 ,"1/0076763239.53354",    0,   26,  274896,"AIS","B1","B1","B1","B1","PISd",0,0,0,0,"B1", 0,15,   0, 0,    0,"AIS","N/A    ","OK ","OK ",    000912.349,    -084.439,    0081.637,    0010.429,    0063.803
"FRM_AIS_EDR_2224.DAT           ",2005-10-07T11:07:32.42 ,"1/0076763247.23417",    0,   27,  274896,"AIS","B1","B1","B1","B1","PISd",0,0,0,0,"B1", 0,15,   0, 0,    0,"AIS","N/A    ","OK ","OK ",    000902.958,    -084.141,    0083.812,    0010.576,    0063.447
"FRM_AIS_EDR_2224.DAT           ",2005-10-07T11:07:39.96 ,"1/0076763254.59017",    0,   28,  274896,"AIS","B1","B1","B1","B1","PISd",0,0,0,0,"B1", 0,15,   0, 0,    0,"AIS","N/A    ","OK ","OK ",    000893.611,    -083.835,    0085.781,    0010.709,    0063.089
"FRM_AIS_EDR_2224.DAT           ",2005-10-07T11:07:47.50 ,"1/0076763262.29080",    0,   29,  274896,"AIS","B1","B1","B1","B1","PISd",0,0,0,0,"B1", 0,15,   0, 0,    0,"AIS","N/A    ","OK ","OK ",    000884.309,    -083.519,    0087.566,    0010.831,    0062.730
"FRM_AIS_EDR_2224.DAT           ",2005-10-07T11:07:55.05 ,"1/0076763269.64679",    0,   30,  274896,"AIS","B1","B1","B1","B1","PISd",0,0,0,0,"B1", 0,15,   0, 0,    0,"AIS","N/A    ","OK ","OK ",    000875.053,    -083.197,    0089.188,    0010.941,    0062.369
"FRM_AIS_EDR_2224.DAT           ",2005-10-07T11:08:02.59 ,"1/0076763277.34743",    0,   31,  274896,"AIS","B1","B1","B1","B1","PISd",0,0,0,0,"B1", 0,15,   0, 0,    0,"AIS","N/A    ","OK ","OK ",    000865.844,    -082.868,    0090.667,    0011.041,    0062.006
"FRM_AIS_EDR_2224.DAT           ",2005-10-07T11:08:10.13 ,"1/0076763285.04806",    0,   32,  274896,"AIS","B1","B1","B1","B1","PISd",0,0,0,0,"B1", 0,15,   0, 0,    0,"AIS","N/A    ","OK ","OK ",    000856.683,    -082.533,    0092.018,    0011.134,    0061.642
"FRM_AIS_EDR_2224.DAT           ",2005-10-07T11:08:17.67 ,"1/0076763292.40406",    0,   33,  274896,"AIS","B1","B1","B1","B1","PISd",0,0,0,0,"B1", 0,15,   0, 0,    0,"AIS","N/A    ","OK ","OK ",    000847.568,    -082.193,    0093.256,    0011.218,    0061.277
"FRM_AIS_EDR_2224.DAT           ",2005-10-07T11:08:25.22 ,"1/0076763300.10469",    0,   34,  274896,"AIS","B1","B1","B1","B1","PISd",0,0,0,0,"B1", 0,15,   0, 0,    0,"AIS","N/A    ","OK ","OK ",    000838.503,    -081.848,    0094.393,    0011.296,    0060.910
"FRM_AIS_EDR_2224.DAT           ",2005-10-07T11:08:32.76 ,"1/0076763307.46068",    0,   35,  274896,"AIS","B1","B1","B1","B1","PISd",0,0,0,0,"B1", 0,15,   0, 0,    0,"AIS","N/A    ","OK ","OK ",    000829.486,    -081.498,    0095.440,    0011.368,    0060.542
"FRM_AIS_EDR_2224.DAT           ",2005-10-07T11:08:40.30 ,"1/0076763315.16132",    0,   36,  274896,"AIS","B1","B1","B1","B1","PISd",0,0,0,0,"B1", 0,15,   0, 0,    0,"AIS","N/A    ","OK ","OK ",    000820.519,    -081.144,    0096.406,    0011.434,    0060.172
"FRM_AIS_EDR_2224.DAT           ",2005-10-07T11:08:47.85 ,"1/0076763322.51731",    0,   37,  274896,"AIS","B1","B1","B1","B1","PISd",0,0,0,0,"B1", 0,15,   0, 0,    0,"AIS","N/A    ","OK ","OK ",    000811.602,    -080.786,    0097.299,    0011.496,    0059.800
"FRM_AIS_EDR_2224.DAT           ",2005-10-07T11:08:55.39 ,"1/0076763330.21794",    0,   38,  274896,"AIS","B1","B1","B1","B1","PISd",0,0,0,0,"B1", 0,15,   0, 0,    0,"AIS","N/A    ","OK ","OK ",    000802.735,    -080.425,    0098.127,    0011.553,    0059.427
"FRM_AIS_EDR_2224.DAT           ",2005-10-07T11:09:02.93 ,"1/0076763337.57394",    0,   39,  274896,"AIS","B1","B1","B1","B1","PISd",0,0,0,0,"B1", 0,15,   0, 0,    0,"AIS","N/A    ","OK ","OK ",    000793.920,    -080.060,    0098.896,    0011.606,    0059.053
"FRM_AIS_EDR_2224.DAT           ",2005-10-07T11:09:10.48 ,"1/0076763345.27457",    0,   40,  274896,"AIS","B1","B1","B1","B1","PISd",0,0,0,0,"B1", 0,15,   0, 0,    0,"AIS","N/A    ","OK ","OK ",    000785.157,    -079.691,    0099.612,    0011.656,    0058.677
"FRM_AIS_EDR_2224.DAT           ",2005-10-07T11:09:18.02 ,"1/0076763352.63056",    0,   41,  274896,"AIS","B1","B1","B1","B1","PISd",0,0,0,0,"B1", 0,15,   0, 0,    0,"AIS","N/A    ","OK ","OK ",    000776.447,    -079.320,    0100.280,    0011.703,    0058.300
"FRM_AIS_EDR_2224.DAT           ",2005-10-07T11:09:25.56 ,"1/0076763360.33120",    0,   42,  274896,"AIS","B1","B1","B1","B1","PISd",0,0,0,0,"B1", 0,15,   0, 0,    0,"AIS","N/A    ","OK ","OK ",    000767.790,    -078.945,    0100.904,    0011.746,    0057.921
"FRM_AIS_EDR_2224.DAT           ",2005-10-07T11:09:33.11 ,"1/0076763368.03183",    0,   43,  274896,"AIS","B1","B1","B1","B1","PISd",0,0,0,0,"B1", 0,15,   0, 0,    0,"AIS","N/A    ","OK ","OK ",    000759.187,    -078.568,    0101.488,    0011.787,    0057.540
"FRM_AIS_EDR_2224.DAT           ",2005-10-07T11:09:40.65 ,"1/0076763375.38782",    0,   44,  274896,"AIS","B1","B1","B1","B1","PISd",0,0,0,0,"B1", 0,15,   0, 0,    0,"AIS","N/A    ","OK ","OK ",    000750.638,    -078.187,    0102.035,    0011.826,    0057.158
"FRM_AIS_EDR_2224.DAT           ",2005-10-07T11:09:48.19 ,"1/0076763383.08846",    0,   45,  274896,"AIS","B1","B1","B1","B1","PISd",0,0,0,0,"B1", 0,15,   0, 0,    0,"AIS","N/A    ","OK ","OK ",    000742.145,    -077.804,    0102.549,    0011.862,    0056.775
"FRM_AIS_EDR_2224.DAT           ",2005-10-07T11:09:55.74 ,"1/0076763390.44445",    0,   46,  274896,"AIS","B1","B1","B1","B1","PISd",0,0,0,0,"B1", 0,15,   0, 0,    0,"AIS","N/A    ","OK ","OK ",    000733.707,    -077.419,    0103.032,    0011.896,    0056.390
"FRM_AIS_EDR_2224.DAT           ",2005-10-07T11:10:03.28 ,"1/0076763398.14508",    0,   47,  274896,"AIS","B1","B1","B1","B1","PISd",0,0,0,0,"B1", 0,15,   0, 0,    0,"AIS","N/A    ","OK ","OK ",    000725.326,    -077.031,    0103.487,    0011.929,    0056.003
"FRM_AIS_EDR_2224.DAT           ",2005-10-07T11:10:10.82 ,"1/0076763405.50108",    0,   48,  274896,"AIS","B1","B1","B1","B1","PISd",0,0,0,0,"B1", 0,15,   0, 0,    0,"AIS","N/A    ","OK ","OK ",    000717.002,    -076.641,    0103.916,    0011.959,    0055.615
"FRM_AIS_EDR_2224.DAT           ",2005-10-07T11:10:18.37 ,"1/0076763413.20171",    0,   49,  274896,"AIS","B1","B1","B1","B1","PISd",0,0,0,0,"B1", 0,15,   0, 0,    0,"AIS","N/A    ","OK ","OK ",    000708.735,    -076.248,    0104.321,    0011.988,    0055.226
"FRM_AIS_EDR_2224.DAT           ",2005-10-07T11:10:25.91 ,"1/0076763420.55770",    0,   50,  274896,"AIS","B1","B1","B1","B1","PISd",0,0,0,0,"B1", 0,15,   0, 0,    0,"AIS","N/A    ","OK ","OK ",    000700.527,    -075.853,    0104.704,    0012.016,    0054.835
"FRM_AIS_EDR_2224.DAT           ",2005-10-07T11:10:33.45 ,"1/0076763428.25834",    0,   51,  274896,"AIS","B1","B1","B1","B1","PISd",0,0,0,0,"B1", 0,15,   0, 0,    0,"AIS","N/A    ","OK ","OK ",    000692.378,    -075.455,    0105.066,    0012.042,    0054.443
"FRM_AIS_EDR_2224.DAT           ",2005-10-07T11:10:41.00 ,"1/0076763435.61433",    0,   52,  274896,"AIS","B1","B1","B1","B1","PISd",0,0,0,0,"B1", 0,15,   0, 0,    0,"AIS","N/A    ","OK ","OK ",    000684.288,    -075.056,    0105.409,    0012.067,    0054.049
"FRM_AIS_EDR_2224.DAT           ",2005-10-07T11:10:48.54 ,"1/0076763443.31496",    0,   53,  274896,"AIS","B1","B1","B1","B1","PISd",0,0,0,0,"B1", 0,15,   0, 0,    0,"AIS","N/A    ","OK ","OK ",    000676.259,    -074.654,    0105.735,    0012.091,    0053.654
"FRM_AIS_EDR_2224.DAT           ",2005-10-07T11:10:56.08 ,"1/0076763451.01560",    0,   54,  274896,"AIS","B1","B1","B1","B1","PISd",0,0,0,0,"B1", 0,15,   0, 0,    0,"AIS","N/A    ","OK ","OK ",    000668.290,    -074.250,    0106.044,    0012.113,    0053.257
"FRM_AIS_EDR_2224.DAT           ",2005-10-07T11:11:03.63 ,"1/0076763458.37159",    0,   55,  274896,"AIS","B1","B1","B1","B1","PISd",0,0,0,0,"B1", 0,15,   0, 0,    0,"AIS","N/A    ","OK ","OK ",    000660.384,    -073.845,    0106.338,    0012.135,    0052.859
"FRM_AIS_EDR_2224.DAT           ",2005-10-07T11:11:11.17 ,"1/0076763466.07222",    0,   56,  274896,"AIS","B1","B1","B1","B1","PISd",0,0,0,0,"B1", 0,15,   0, 0,    0,"AIS","N/A    ","OK ","OK ",    000652.539,    -073.437,    0106.618,    0012.156,    0052.459
"FRM_AIS_EDR_2224.DAT           ",2005-10-07T11:11:18.71 ,"1/0076763473.42822",    0,   57,  274896,"AIS","B1","B1","B1","B1","PISd",0,0,0,0,"B1", 0,15,   0, 0,    0,"AIS","N/A    ","OK ","OK ",    000644.758,    -073.027,    0106.884,    0012.176,    0052.058
"FRM_AIS_EDR_2224.DAT           ",2005-10-07T11:11:26.25 ,"1/0076763481.12885",    0,   58,  274896,"AIS","B1","B1","B1","B1","PISd",0,0,0,0,"B1", 0,15,   0, 0,    0,"AIS","N/A    ","OK ","OK ",    000637.040,    -072.615,    0107.137,    0012.194,    0051.656
"FRM_AIS_EDR_2224.DAT           ",2005-10-07T11:11:33.80 ,"1/0076763488.48484",    0,   59,  274896,"AIS","B1","B1","B1","B1","PISd",0,0,0,0,"B1", 0,15,   0, 0,    0,"AIS","N/A    ","OK ","OK ",    000629.386,    -072.201,    0107.379,    0012.213,    0051.252
"FRM_AIS_EDR_2224.DAT           ",2005-10-07T11:11:41.34 ,"1/0076763496.18548",    0,   60,  274896,"AIS","B1","B1","B1","B1","PISd",0,0,0,0,"B1", 0,15,   0, 0,    0,"AIS","N/A    ","OK ","OK ",    000621.797,    -071.785,    0107.610,    0012.230,    0050.846
"FRM_AIS_EDR_2224.DAT           ",2005-10-07T11:11:48.88 ,"1/0076763503.54147",    0,   61,  274896,"AIS","B1","B1","B1","B1","PISd",0,0,0,0,"B1", 0,15,   0, 0,    0,"AIS","N/A    ","OK ","OK ",    000614.273,    -071.367,    0107.830,    0012.247,    0050.440
"FRM_AIS_EDR_2224.DAT           ",2005-10-07T11:11:56.43 ,"1/0076763511.24210",    0,   62,  274896,"AIS","B1","B1","B1","B1","PISd",0,0,0,0,"B1", 0,15,   0, 0,    0,"AIS","N/A    ","OK ","OK ",    000606.816,    -070.948,    0108.041,    0012.263,    0050.032
"FRM_AIS_EDR_2224.DAT           ",2005-10-07T11:12:03.97 ,"1/0076763518.59810",    0,   63,  274896,"AIS","B1","B1","B1","B1","PISd",0,0,0,0,"B1", 0,15,   0, 0,    0,"AIS","N/A    ","OK ","OK ",    000599.426,    -070.526,    0108.242,    0012.278,    0049.622
"FRM_AIS_EDR_2224.DAT           ",2005-10-07T11:12:11.51 ,"1/0076763526.29873",    0,   64,  274896,"AIS","B1","B1","B1","B1","PISd",0,0,0,0,"B1", 0,15,   0, 0,    0,"AIS","N/A    ","OK ","OK ",    000592.103,    -070.103,    0108.435,    0012.293,    0049.211
"FRM_AIS_EDR_2224.DAT           ",2005-10-07T11:12:19.06 ,"1/0076763533.65472",    0,   65,  274896,"AIS","B1","B1","B1","B1","PISd",0,0,0,0,"B1", 0,15,   0, 0,    0,"AIS","N/A    ","OK ","OK ",    000584.849,    -069.678,    0108.619,    0012.307,    0048.799
"FRM_AIS_EDR_2224.DAT           ",2005-10-07T11:12:26.60 ,"1/0076763541.35536",    0,   66,  274896,"AIS","B1","B1","B1","B1","PISd",0,0,0,0,"B1", 0,15,   0, 0,    0,"AIS","N/A    ","OK ","OK ",    000577.663,    -069.251,    0108.796,    0012.321,    0048.386
"FRM_AIS_EDR_2224.DAT           ",2005-10-07T11:12:34.14 ,"1/0076763549.05599",    0,   67,  274896,"AIS","B1","B1","B1","B1","PISd",0,0,0,0,"B1", 0,15,   0, 0,    0,"AIS","N/A    ","OK ","OK ",    000570.547,    -068.823,    0108.966,    0012.335,    0047.971
"FRM_AIS_EDR_2224.DAT           ",2005-10-07T11:12:41.69 ,"1/0076763556.41198",    0,   68,  274896,"AIS","B1","B1","B1","B1","PISd",0,0,0,0,"B1", 0,15,   0, 0,    0,"AIS","N/A    ","OK ","OK ",    000563.501,    -068.392,    0109.129,    0012.348,    0047.555
"FRM_AIS_EDR_2224.DAT           ",2005-10-07T11:12:49.23 ,"1/0076763564.11262",    0,   69,  274896,"AIS","B1","B1","B1","B1","PISd",0,0,0,0,"B1", 0,15,   0, 0,    0,"AIS","N/A    ","OK ","OK ",    000556.526,    -067.960,    0109.285,    0012.360,    0047.138
"FRM_AIS_EDR_2224.DAT           ",2005-10-07T11:12:56.77 ,"1/0076763571.46861",    0,   70,  274896,"AIS","B1","B1","B1","B1","PISd",0,0,0,0,"B1", 0,15,   0, 0,    0,"AIS","N/A    ","OK ","OK ",    000549.622,    -067.526,    0109.434,    0012.372,    0046.719
"FRM_AIS_EDR_2224.DAT           ",2005-10-07T11:13:04.32 ,"1/0076763579.16924",    0,   71,  274896,"AIS","B1","B1","B1","B1","PISd",0,0,0,0,"B1", 0,15,   0, 0,    0,"AIS","N/A    ","OK ","OK ",    000542.791,    -067.091,    0109.578,    0012.384,    0046.299
"FRM_AIS_EDR_2224.DAT           ",2005-10-07T11:13:11.86 ,"1/0076763586.52524",    0,   72,  274896,"AIS","B1","B1","B1","B1","PISd",0,0,0,0,"B1", 0,15,   0, 0,    0,"AIS","N/A    ","OK ","OK ",    000536.033,    -066.654,    0109.717,    0012.395,    0045.878
"FRM_AIS_EDR_2224.DAT           ",2005-10-07T11:13:19.40 ,"1/0076763594.22587",    0,   73,  274896,"AIS","B1","B1","B1","B1","PISd",0,0,0,0,"B1", 0,15,   0, 0,    0,"AIS","N/A    ","OK ","OK ",    000529.348,    -066.215,    0109.850,    0012.406,    0045.455
"FRM_AIS_EDR_2224.DAT           ",2005-10-07T11:13:26.95 ,"1/0076763601.58186",    0,   74,  274896,"AIS","B1","B1","B1","B1","PISd",0,0,0,0,"B1", 0,15,   0, 0,    0,"AIS","N/A    ","OK ","OK ",    000522.737,    -065.774,    0109.978,    0012.416,    0045.032
"FRM_AIS_EDR_2224.DAT           ",2005-10-07T11:13:34.49 ,"1/0076763609.28249",    0,   75,  274896,"AIS","B1","B1","B1","B1","PISd",0,0,0,0,"B1", 0,15,   0, 0,    0,"AIS","N/A    ","OK ","OK ",    000516.201,    -065.332,    0110.101,    0012.427,    0044.607
"FRM_AIS_EDR_2224.DAT           ",2005-10-07T11:13:42.03 ,"1/0076763616.63849",    0,   76,  274896,"AIS","B1","B1","B1","B1","PISd",0,0,0,0,"B1", 0,15,   0, 0,    0,"AIS","N/A    ","OK ","OK ",    000509.740,    -064.888,    0110.219,    0012.437,    0044.181
"FRM_AIS_EDR_2224.DAT           ",2005-10-07T11:13:49.58 ,"1/0076763624.33912",    0,   77,  274896,"AIS","B1","B1","B1","B1","PISd",0,0,0,0,"B1", 0,15,   0, 0,    0,"AIS","N/A    ","OK ","OK ",    000503.356,    -064.443,    0110.334,    0012.446,    0043.754
"FRM_AIS_EDR_2224.DAT           ",2005-10-07T11:13:57.12 ,"1/0076763632.03975",    0,   78,  274896,"AIS","B1","B1","B1","B1","PISd",0,0,0,0,"B1", 0,15,   0, 0,    0,"AIS","N/A    ","OK ","OK ",    000497.049,    -063.996,    0110.444,    0012.456,    0043.326
"FRM_AIS_EDR_2224.DAT           ",2005-10-07T11:14:04.66 ,"1/0076763639.39575",    0,   79,  274896,"AIS","B1","B1","B1","B1","PISd",0,0,0,0,"B1", 0,15,   0, 0,    0,"AIS","N/A    ","OK ","OK ",    000490.819,    -063.548,    0110.549,    0012.465,    0042.896
"FRM_AIS_EDR_2224.DAT           ",2005-10-07T11:14:12.21 ,"1/0076763647.09638",    0,   80,  274896,"AIS","B1","B1","B1","B1","PISd",0,0,0,0,"B1", 0,15,   0, 0,    0,"AIS","N/A    ","OK ","OK ",    000484.667,    -063.098,    0110.652,    0012.474,    0042.466
"FRM_AIS_EDR_2224.DAT           ",2005-10-07T11:14:19.75 ,"1/0076763654.45237",    0,   81,  274896,"AIS","B1","B1","B1","B1","PISd",0,0,0,0,"B1", 0,15,   0, 0,    0,"AIS","N/A    ","OK ","OK ",    000478.594,    -062.646,    0110.750,    0012.482,    0042.034
"FRM_AIS_EDR_2224.DAT           ",2005-10-07T11:14:27.29 ,"1/0076763662.15301",    0,   82,  274896,"AIS","B1","B1","B1","B1","PISd",0,0,0,0,"B1", 0,15,   0, 0,    0,"AIS","N/A    ","OK ","OK ",    000472.600,    -062.193,    0110.845,    0012.491,    0041.602
"FRM_AIS_EDR_2224.DAT           ",2005-10-07T11:14:34.83 ,"1/0076763669.50900",    0,   83,  274896,"AIS","B1","B1","B1","B1","PISd",0,0,0,0,"B1", 0,15,   0, 0,    0,"AIS","N/A    ","OK ","OK ",    000466.686,    -061.739,    0110.937,    0012.499,    0041.168
"FRM_AIS_EDR_2224.DAT           ",2005-10-07T11:14:42.38 ,"1/0076763677.20963",    0,   84,  274896,"AIS","B1","B1","B1","B1","PISd",0,0,0,0,"B1", 0,15,   0, 0,    0,"AIS","N/A    ","OK ","OK ",    000460.853,    -061.283,    0111.025,    0012.507,    0040.734
"FRM_AIS_EDR_2224.DAT           ",2005-10-07T11:14:49.92 ,"1/0076763684.56563",    0,   85,  274896,"AIS","B1","B1","B1","B1","PISd",0,0,0,0,"B1", 0,15,   0, 0,    0,"AIS","N/A    ","OK ","OK ",    000455.101,    -060.826,    0111.110,    0012.514,    0040.298
"FRM_AIS_EDR_2224.DAT           ",2005-10-07T11:14:57.46 ,"1/0076763692.26626",    0,   86,  274896,"AIS","B1","B1","B1","B1","PISd",0,0,0,0,"B1", 0,15,   0, 0,    0,"AIS","N/A    ","OK ","OK ",    000449.432,    -060.367,    0111.193,    0012.522,    0039.862
"FRM_AIS_EDR_2224.DAT           ",2005-10-07T11:15:05.01 ,"1/0076763699.62225",    0,   87,  274896,"AIS","B1","B1","B1","B1","PISd",0,0,0,0,"B1", 0,15,   0, 0,    0,"AIS","N/A    ","OK ","OK ",    000443.844,    -059.907,    0111.272,    0012.529,    0039.425
"FRM_AIS_EDR_2224.DAT           ",2005-10-07T11:15:12.55 ,"1/0076763707.32289",    0,   88,  274896,"AIS","B1","B1","B1","B1","PISd",0,0,0,0,"B1", 0,15,   0, 0,    0,"AIS","N/A    ","OK ","OK ",    000438.340,    -059.445,    0111.349,    0012.536,    0038.987
"FRM_AIS_EDR_2224.DAT           ",2005-10-07T11:15:20.09 ,"1/0076763715.02352",    0,   89,  274896,"AIS","B1","B1","B1","B1","PISd",0,0,0,0,"B1", 0,15,   0, 0,    0,"AIS","N/A    ","OK ","OK ",    000432.920,    -058.982,    0111.424,    0012.543,    0038.548
"FRM_AIS_EDR_2224.DAT           ",2005-10-07T11:15:27.64 ,"1/0076763722.37951",    0,   90,  274896,"AIS","B1","B1","B1","B1","PISd",0,0,0,0,"B1", 0,15,   0, 0,    0,"AIS","N/A    ","OK ","OK ",    000427.585,    -058.517,    0111.495,    0012.550,    0038.108